Weather History for Mountain Home, ID

Change the Weather History Date:

Saturday, February 23, 2013

  Actual Average Record
Temperature  
Mean Temperature 33 °F 37 °F  
Max Temperature 41 °F 47 °F 69 °F (1954)
Min Temperature 25 °F 25 °F 10 °F (1942)
Degree Days  
Heating Degree Days 32 28  
Month to date heating degree days 684 705  
Cooling Degree Days 0 0  
Month to date cooling degree days 0 0  
Moisture  
Dew Point 27 °F    
Average Humidity 79    
Maximum Humidity 100    
Minimum Humidity 45    
Precipitation  
Precipitation 0.05 in 0.04 in 0.63 in (1986)
Month to date precipitation 0.05 0.69  
Sea Level Pressure  
Sea Level Pressure 29.94 in    
Wind  
Wind Speed 20 mph (NW)    
Max Wind Speed 40 mph    
Max Gust Speed 53 mph    
Visibility 9 miles    
Events Fog , Rain , Snow    
T = Trace of Precipitation, MM = Missing Value Source: NWS Daily Summary

Daily Weather History Graph

Daily Weather History Graph

Search for Another Location

Airport:

Trip Planner

Search our weather history database for the weather conditions in past years. The results will help you decide how hot, cold, wet, or windy it might be!

Date:

Astronomy

Feb. 23, 2013 Rise Set
Actual Time 7:28 AM MST 6:25 PM MST
Civil Twilight 6:59 AM MST 6:54 PM MST
Nautical Twilight 6:26 AM MST 7:27 PM MST
Astronomical Twilight 5:54 AM MST 8:00 PM MST
Moon 4:38 PM MST (2/23) 5:55 AM MST (2/23)
Length of Visible Light 11h 54m
Length of Day
10h 57m
Waxing Gibbous, 95% of the Moon is Illuminated
Feb 23
Waxing Gibbous
Feb 25
Full
Mar 4
Last Quarter
Mar 11
New
Mar 19
First Quarter

Hourly Weather History & Observations

Time (MST) Temp. Windchill Dew Point Humidity Pressure Visibility Wind Dir Wind Speed Gust Speed Precip Events Conditions
12:28 AM 37.4 °F 28.5 °F 33.8 °F 87% 29.83 in 10.0 mi ESE 15.0 mph - N/A Rain Light Rain
12:58 AM 36.0 °F 26.3 °F 34.0 °F 93% 29.83 in 10.0 mi East 16.1 mph - 0.00 in   Mostly Cloudy
1:53 AM 35.6 °F 26.2 °F 32.0 °F 87% 29.76 in 10.0 mi East 15.0 mph - N/A   Overcast
1:58 AM 34.9 °F 24.9 °F 33.6 °F 95% 29.78 in 10.0 mi East 16.1 mph - N/A   Overcast
2:33 AM 35.6 °F 29.2 °F 33.8 °F 93% 29.74 in 10.0 mi ENE 8.1 mph - N/A   Overcast
2:58 AM 34.5 °F 27.3 °F 33.8 °F 97% 29.76 in 7.0 mi SE 9.2 mph - 0.01 in Rain Light Rain
3:13 AM 35.6 °F 27.5 °F 35.6 °F 100% 29.74 in 9.0 mi West 11.5 mph 19.6 mph N/A Rain Light Rain
3:17 AM 35.6 °F 23.2 °F 33.8 °F 93% 29.77 in 1.8 mi WNW 26.5 mph 36.8 mph N/A Rain Light Freezing Rain
3:18 AM 35.6 °F 22.7 °F 32.0 °F 87% 29.77 in 1.2 mi NW 28.8 mph 36.8 mph N/A Rain Light Freezing Rain
3:19 AM 35.6 °F 22.3 °F 32.0 °F 87% 29.77 in 1.0 mi NW 31.1 mph 38.0 mph N/A Rain Light Rain
3:27 AM 32.0 °F 15.8 °F 32.0 °F 100% 29.77 in 0.5 mi NW 40.3 mph 52.9 mph N/A Fog , Snow Light Snow
3:32 AM 32.0 °F 17.4 °F 32.0 °F 100% 29.78 in 0.8 mi NW 31.1 mph 52.9 mph N/A Snow Light Snow
3:37 AM 32.0 °F 17.9 °F 32.0 °F 100% 29.79 in 1.0 mi NW 28.8 mph 46.0 mph N/A Snow Light Snow
3:42 AM 32.0 °F 18.4 °F 32.0 °F 100% 29.79 in 0.8 mi NW 26.5 mph 38.0 mph N/A Snow Light Snow
3:47 AM 32.0 °F 18.6 °F 32.0 °F 100% 29.79 in 1.0 mi NW 25.3 mph 35.7 mph N/A Snow Light Snow
3:52 AM 32.0 °F 18.6 °F 32.0 °F 100% 29.79 in 2.0 mi NW 25.3 mph 35.7 mph N/A Snow Light Snow
3:58 AM 32.2 °F 18.4 °F 31.5 °F 97% 29.83 in 3.0 mi NW 27.6 mph 33.4 mph 0.04 in Snow Light Snow
4:03 AM 32.0 °F 19.2 °F 32.0 °F 100% 29.79 in 4.0 mi NW 23.0 mph - N/A Snow Light Snow
4:18 AM 32.0 °F 19.5 °F 32.0 °F 100% 29.80 in 8.0 mi NW 21.9 mph - N/A Snow Light Snow
4:23 AM 32.0 °F 19.5 °F 32.0 °F 100% 29.81 in 10.0 mi WNW 21.9 mph - N/A   Overcast
4:28 AM 32.0 °F 18.9 °F 32.0 °F 100% 29.80 in 10.0 mi NW 24.2 mph - N/A   Overcast
4:43 AM 32.0 °F 19.8 °F 32.0 °F 100% 29.80 in 10.0 mi WNW 20.7 mph - N/A   Overcast
4:53 AM 32.0 °F 20.1 °F 32.0 °F 100% 29.82 in 10.0 mi WNW 19.6 mph 27.6 mph N/A   Overcast
4:58 AM 32.0 °F 19.2 °F 32.0 °F 100% 29.86 in 10.0 mi NW 23.0 mph 28.8 mph 0.00 in   Overcast
5:03 AM 32.0 °F 19.2 °F 32.0 °F 100% 29.83 in 10.0 mi NW 23.0 mph 28.8 mph N/A   Overcast
5:13 AM 32.0 °F 19.2 °F 32.0 °F 100% 29.83 in 10.0 mi NW 23.0 mph - N/A   Overcast
5:16 AM 32.0 °F 19.2 °F 32.0 °F 100% 29.83 in 10.0 mi NW 23.0 mph - N/A   Light Freezing Drizzle
5:17 AM 32.0 °F 19.2 °F 32.0 °F 100% 29.83 in 10.0 mi NW 23.0 mph - N/A   Drizzle
5:22 AM 32.0 °F 18.9 °F 32.0 °F 100% 29.82 in 10.0 mi NW 24.2 mph - N/A   Light Drizzle
5:47 AM 32.0 °F 19.8 °F 30.2 °F 93% 29.84 in 10.0 mi NW 20.7 mph - N/A   Overcast
5:58 AM 31.5 °F 18.2 °F 29.8 °F 94% 29.88 in 10.0 mi NW 24.2 mph - 0.00 in   Overcast
6:48 AM 32.0 °F 20.1 °F 24.8 °F 75% 29.88 in 10.0 mi NW 19.6 mph 28.8 mph N/A   Mostly Cloudy
6:53 AM 32.0 °F 19.8 °F 24.8 °F 75% 29.88 in 10.0 mi NW 20.7 mph 28.8 mph N/A   Mostly Cloudy
6:58 AM 30.6 °F 17.3 °F 24.8 °F 79% 29.92 in 10.0 mi NW 23.0 mph 28.8 mph N/A   Scattered Clouds
7:58 AM 28.9 °F 15.1 °F 21.9 °F 75% 29.97 in 10.0 mi NW 23.0 mph - N/A   Clear
8:43 AM 30.2 °F 17.4 °F 21.2 °F 69% 29.95 in 10.0 mi NW 20.7 mph 26.5 mph N/A   Mostly Cloudy
8:58 AM 29.7 °F 16.7 °F 21.9 °F 73% 30.01 in 10.0 mi WNW 20.7 mph - 0.00 in   Mostly Cloudy
9:13 AM 32.0 °F 19.8 °F 23.0 °F 69% 29.96 in 10.0 mi WNW 20.7 mph - N/A   Mostly Cloudy
9:23 AM 32.0 °F 20.1 °F 21.2 °F 64% 29.97 in 10.0 mi NW 19.6 mph - N/A   Scattered Clouds
9:58 AM 31.8 °F 19.0 °F 22.5 °F 68% 30.04 in 10.0 mi WNW 23.0 mph - N/A   Clear
10:43 AM 32.0 °F 18.9 °F 24.8 °F 75% 30.00 in 10.0 mi WNW 24.2 mph 27.6 mph N/A   Mostly Cloudy
10:58 AM 33.8 °F 21.3 °F 23.9 °F 67% 30.05 in 10.0 mi WNW 24.2 mph 31.1 mph N/A   Scattered Clouds
11:58 AM 36.0 °F 24.2 °F 25.3 °F 65% 30.06 in 10.0 mi NW 24.2 mph - N/A   Clear
12:58 PM 37.4 °F 26.1 °F 23.2 °F 57% 30.04 in 10.0 mi NW 24.2 mph 33.4 mph N/A   Clear
1:13 PM 37.4 °F 25.4 °F 23.0 °F 56% 29.99 in 10.0 mi WNW 27.6 mph - N/A   Mostly Cloudy
1:48 PM 39.2 °F 27.8 °F 23.0 °F 52% 29.99 in 10.0 mi NW 27.6 mph 35.7 mph N/A   Mostly Cloudy
1:58 PM 37.8 °F 26.3 °F 23.2 °F 56% 30.04 in 10.0 mi NW 25.3 mph 35.7 mph N/A   Mostly Cloudy
2:08 PM 39.2 °F 28.5 °F 23.0 °F 52% 29.99 in 10.0 mi WNW 24.2 mph 29.9 mph N/A   Scattered Clouds
2:13 PM 39.2 °F 29.0 °F 23.0 °F 52% 29.99 in 10.0 mi NW 21.9 mph 32.2 mph N/A   Mostly Cloudy
2:38 PM 37.4 °F 27.5 °F 21.2 °F 52% 29.99 in 10.0 mi WNW 18.4 mph 31.1 mph N/A   Overcast
2:58 PM 39.6 °F 28.7 °F 21.2 °F 48% 30.04 in 10.0 mi WNW 25.3 mph 33.4 mph N/A   Overcast
3:53 PM 41.0 °F 31.1 °F 21.2 °F 45% 29.99 in 10.0 mi NW 23.0 mph 33.4 mph N/A Rain Light Rain
3:58 PM 39.7 °F 29.0 °F 22.3 °F 50% 30.04 in 10.0 mi NNW 25.3 mph - 0.00 in Rain Light Rain
4:13 PM 39.2 °F 29.3 °F 23.0 °F 52% 30.00 in 10.0 mi NNW 20.7 mph - N/A   Scattered Clouds
4:38 PM 37.4 °F 27.2 °F 24.8 °F 60% 30.02 in 7.0 mi WNW 19.6 mph 35.7 mph N/A Snow Light Snow
4:53 PM 37.4 °F 27.5 °F 24.8 °F 60% 30.02 in 10.0 mi NW 18.4 mph - N/A   Scattered Clouds
4:58 PM 37.9 °F 27.9 °F 24.8 °F 59% 30.07 in 10.0 mi NW 19.6 mph - 0.00 in   Scattered Clouds
5:58 PM 35.1 °F 24.8 °F 24.6 °F 66% 30.11 in 10.0 mi NW 17.3 mph - N/A   Partly Cloudy
6:08 PM 35.6 °F 26.6 °F 24.8 °F 65% 30.06 in 10.0 mi NNW 13.8 mph - N/A Rain Light Rain
6:18 PM 35.6 °F 25.9 °F 24.8 °F 65% 30.06 in 10.0 mi NNW 16.1 mph - N/A   Mostly Cloudy
6:28 PM 35.6 °F 25.9 °F 23.0 °F 60% 30.07 in 10.0 mi NNW 16.1 mph - N/A   Scattered Clouds
6:38 PM 35.6 °F 25.9 °F 21.2 °F 56% 30.07 in 10.0 mi NNW 16.1 mph - N/A Rain Light Rain
6:43 PM 35.6 °F 26.6 °F 21.2 °F 56% 30.07 in 10.0 mi NNW 13.8 mph - N/A Rain Light Rain
6:53 PM 35.6 °F 27.5 °F 23.0 °F 60% 30.08 in 10.0 mi NNW 11.5 mph - N/A   Mostly Cloudy
6:58 PM 35.6 °F 27.5 °F 23.0 °F 60% 30.14 in 10.0 mi NNW 11.5 mph - 0.00 in   Mostly Cloudy
7:43 PM 32.0 °F 22.1 °F 26.6 °F 80% 30.11 in 10.0 mi NNW 13.8 mph - N/A   Mostly Cloudy
7:58 PM 32.0 °F 25.6 °F 26.4 °F 80% 30.19 in 10.0 mi NNW 6.9 mph - 0.00 in   Scattered Clouds
8:58 PM 28.8 °F 19.5 °F 25.0 °F 86% 30.19 in 10.0 mi WNW 10.4 mph - N/A   Clear
9:58 PM 26.8 °F 19.3 °F 22.6 °F 84% 30.22 in 10.0 mi NW 6.9 mph - N/A   Clear
10:58 PM 25.5 °F 15.5 °F 21.6 °F 85% 30.23 in 10.0 mi WNW 10.4 mph - N/A   Clear
11:58 PM 29.5 °F 18.8 °F 24.4 °F 81% 30.22 in 10.0 mi NW 13.8 mph - N/A   Clear